sat.trackr.live / text

‹ back to catalog

STARLINK-36417

NORAD 67533 · 2026-014B

PAYLOAD ACTIVE UNKNOWN

§ Identity

Operator
Country
US
Launch date
2026-01-22
Launch site
AFWTR
Launch vehicle
Mass (kg)
RCS (m²)

Purposes: comms

External: N2YO · Heavens-Above · Gunter

§ Orbital elements

Epoch: 2026-05-25T02:52:00.650208Z

Period
93.90 min
Inclination
97.2861°
Eccentricity
0.0001385
Mean motion
15.33468447 rev/d
Perigee alt
464.5 km
Apogee alt
466.4 km
Semi-major
6,843.6 km
B*
7.3226e-4
RAAN
32.1213°
Arg perigee
86.1887°
Mean anomaly
273.9514°
Rev number
2,049

§ Raw data

STARLINK-364171 67533U 26014B   26145.11945197  .00023657  00000+0  73226-3 0  99972 67533  97.2861  32.1213 0001385  86.1887 273.9514 15.33468447 20497

JSON: /api/v1/satellites/67533 · /tle

For live sub-satellite position, see the globe view (requires WebGL).

§ Visibility from observer

Set your observer location to see the next 7 days of passes ≥ 10°. The values pass through the URL so the page stays shareable.

No JS? Fill the form by hand. The geolocation button needs JavaScript.